Location: ????????
(60.4333°N, 46.4710°E)
Time: 04:35:27
(UTC+00:00)

NOAA 15 - Pass Details

Date: 25 November 2020
Orbit: 798 x 812 km, 98.7° (Epoch: 19 January)

Event Time Altitude Azimuth Distance (km) Brightness Sun altitude
Rises 14:43:48 0° 150° (SSE) 3,323 7.6 -18.4°
Reaches altitude 10° 14:46:08 10° 149° (SSE) 2,394 6.8 -18.7°
Maximum altitude 14:51:24 71° 66° (ENE) 859 4.5 -19.3°
Drops below altitude 10° 14:56:41 10° 344° (NNW) 2,399 7.2 -20.0°
Sets 14:59:01 0° 342° (NNW) 3,331 7.9 -20.2°
